Change the Weather History Date:

Sunday, December 9, 2012

  Actual Average Record
Temperature  
Mean Temperature 53 °F -  
Max Temperature 60 °F 55 °F 71 °F (2010)
Min Temperature 46 °F 42 °F 33 °F (1998)
Degree Days  
Heating Degree Days 12    
Growing Degree Days 3 (Base 50)    
Moisture  
Dew Point 46 °F    
Average Humidity 75    
Maximum Humidity 88    
Minimum Humidity 59    
Precipitation  
Precipitation 0.00 in - - ()
Sea Level Pressure  
Sea Level Pressure 29.64 in    
Wind  
Wind Speed 4 mph ()    
Max Wind Speed 18 mph    
Max Gust Speed 31 mph    
Visibility 6.1 miles    
Events Rain    
Averages and records for this station are not official NWS values.
T = Trace of Precipitation, MM = Missing Value Source: Averaged Metar Reports

Daily Weather History Graph

Daily Weather History Graph

Search for Another Location

Airport or City:

Trip Planner

Search our weather history database for the weather conditions in past years. The results will help you decide how hot, cold, wet, or windy it might be!

Date:

Astronomy

Dec. 09, 2012 Rise Set
Actual Time 7:30 AM EET 5:06 PM EET
Civil Twilight 7:01 AM EET 5:35 PM EET
Nautical Twilight 6:28 AM EET 6:08 PM EET
Astronomical Twilight 5:56 AM EET 6:40 PM EET
Moon 2:44 AM EET (12/9) 1:57 PM EET (12/9)
Length of Visible Light 10h 34m
Length of Day
9h 35m
Waning Crescent, 21% of the Moon is Illuminated
Dec 9
Waning Crescent
Dec 13
New
Dec 20
First Quarter
Dec 28
Full
Jan 5
Last Quarter

Hourly Weather History & Observations

Time (EET) Temp. Windchill Dew Point Humidity Pressure Visibility Wind Dir Wind Speed Gust Speed Precip Events Conditions
12:50 AM 59.0 °F - 50.0 °F 72% 29.68 in 6.2 mi South 18.4 mph 31.1 mph N/A   Mostly Cloudy
1:50 AM 59.0 °F - 53.6 °F 82% 29.65 in 5.6 mi South 9.2 mph - N/A Rain Light Rain
2:50 AM 59.0 °F - 50.0 °F 72% 29.65 in 6.2 mi South 12.7 mph - N/A   Mostly Cloudy
3:50 AM 59.0 °F - 51.8 °F 77% 29.62 in 6.2 mi South 8.1 mph - N/A   Mostly Cloudy
4:50 AM 57.2 °F - 51.8 °F 82% 29.62 in 6.2 mi Variable 2.3 mph - N/A   Mostly Cloudy
5:20 AM 57.2 °F - 50.0 °F 77% 29.62 in 6.2 mi Calm Calm - N/A   Mostly Cloudy
5:50 AM 55.4 °F - 50.0 °F 82% 29.62 in 6.2 mi Calm Calm - N/A   Mostly Cloudy
6:20 AM 55.4 °F - 48.2 °F 77% 29.62 in 6.2 mi Calm Calm - N/A   Mostly Cloudy
6:50 AM 55.4 °F - 48.2 °F 77% 29.62 in 6.2 mi Calm Calm - N/A   Mostly Cloudy
7:20 AM 55.4 °F - 48.2 °F 77% 29.62 in 6.2 mi Calm Calm - N/A   Mostly Cloudy
7:50 AM 53.6 °F - 48.2 °F 82% 29.65 in 6.2 mi Calm Calm - N/A   Mostly Cloudy
8:20 AM 53.6 °F - 48.2 °F 82% 29.65 in 6.2 mi Calm Calm - N/A   Mostly Cloudy
8:50 AM 53.6 °F - 50.0 °F 88% 29.65 in 6.2 mi Calm Calm - N/A   Mostly Cloudy
9:20 AM 53.6 °F - 50.0 °F 88% 29.65 in 6.2 mi Calm Calm - N/A   Mostly Cloudy
9:50 AM 55.4 °F - 51.8 °F 88% 29.65 in 6.2 mi Calm Calm - N/A   Mostly Cloudy
10:20 AM 57.2 °F - 51.8 °F 82% 29.65 in 6.2 mi Calm Calm - N/A   Mostly Cloudy
10:50 AM 60.8 °F - 48.2 °F 63% 29.65 in 6.2 mi WSW 4.6 mph - N/A   Mostly Cloudy
11:50 AM 59.0 °F - 46.4 °F 63% 29.65 in 6.2 mi West 4.6 mph - N/A   Overcast
12:20 PM 57.2 °F - 42.8 °F 59% 29.65 in 5.6 mi WSW 13.8 mph - N/A Rain Light Rain
12:50 PM 55.4 °F - 42.8 °F 63% 29.65 in 5.6 mi West 11.5 mph 23.0 mph N/A Rain Light Rain
1:20 PM 55.4 °F - 42.8 °F 63% 29.59 in 5.6 mi North 5.8 mph - N/A Rain Light Rain
1:50 PM 55.4 °F - 44.6 °F 67% 29.62 in 6.2 mi Calm Calm - N/A   Light Drizzle
2:20 PM 55.4 °F - 44.6 °F 67% 29.62 in 6.2 mi Calm Calm - N/A   Overcast
2:50 PM 55.4 °F - 46.4 °F 72% 29.62 in 6.2 mi Calm Calm - N/A   Overcast
3:20 PM 55.4 °F - 46.4 °F 72% 29.59 in 6.2 mi East 4.6 mph - N/A   Overcast
3:50 PM 55.4 °F - 44.6 °F 67% 29.59 in 6.2 mi Calm Calm - N/A   Mostly Cloudy
4:20 PM 55.4 °F - 46.4 °F 72% 29.62 in 6.2 mi Calm Calm - N/A   Mostly Cloudy
4:50 PM 55.4 °F - 48.2 °F 77% 29.62 in 6.2 mi Calm Calm - N/A   Scattered Clouds
5:20 PM 53.6 °F - 48.2 °F 82% 29.62 in 6.2 mi Calm Calm - N/A   Scattered Clouds
5:50 PM 51.8 °F - 44.6 °F 76% 29.62 in 6.2 mi Calm Calm - N/A   Scattered Clouds
6:20 PM 53.6 °F - 42.8 °F 67% 29.65 in 6.2 mi Calm Calm - N/A   Scattered Clouds
6:50 PM 53.6 °F - 41.0 °F 62% 29.65 in 6.2 mi Calm Calm - N/A   Scattered Clouds
7:20 PM 50.0 °F - 41.0 °F 71% 29.65 in 6.2 mi Calm Calm - N/A   Scattered Clouds
7:50 PM 46.4 °F - 41.0 °F 81% 29.65 in 6.2 mi Calm Calm - N/A   Scattered Clouds
8:20 PM 46.4 °F - 41.0 °F 81% 29.65 in 6.2 mi Calm Calm - N/A   Scattered Clouds
8:50 PM 46.4 °F - 41.0 °F 81% 29.65 in 6.2 mi Calm Calm - N/A   Scattered Clouds
9:20 PM 46.4 °F 43.5 °F 41.0 °F 81% 29.65 in 6.2 mi NNE 5.8 mph - N/A   Scattered Clouds
9:50 PM 46.4 °F 43.5 °F 41.0 °F 81% 29.65 in 6.2 mi NNW 5.8 mph - N/A   Scattered Clouds
10:20 PM 48.2 °F - 39.2 °F 71% 29.65 in 6.2 mi North 8.1 mph - N/A   Scattered Clouds
10:50 PM 46.4 °F - 39.2 °F 76% 29.65 in 6.2 mi Calm Calm - N/A   Mostly Cloudy
11:50 PM 48.2 °F - 39.2 °F 71% 29.65 in 6.2 mi Calm Calm - N/A   Mostly Cloudy